User: anonymous   Login
Location: Unspecified
(0.0000°N, 0.0000°E)
Time: 13:00:15
(UTC+00:00)
Language:

MOZHAYETS - Orbit

View from above orbital plane
View from above orbital plane
View from above satellite
View from above satellite

Ground track
Ground track

The orbit data is extracted from the following two-line orbital elements,

1 27560U 02054B   21016.15925058  .00000029  00000-0  16960-4 0  9993
2 27560  98.3847 167.9542 0040938  17.3395 342.9187 14.57889619962703
Epoch (UTC): 16 January 2021 03:49:19
Eccentricity: 0.0040938
inclination: 98.3847°
perigee height: 671 km
apogee height: 729 km
right ascension of ascending node: 167.9542°
argument of perigee: 17.3395°
revolutions per day: 14.57889619
mean anomaly at epoch: 342.9187°
orbit number at epoch: 96270

The dashed part of the orbit path shows where the satellite is in the earth's shadow,  

DLR